[[{"header":{"parameterUnit":"m.s-1","parameterCategory":1,"la1":30.2991,"la2":30.254,"lo1":-89.0895,"lo2":-89.0444,"dy":0.0017,"dx":0.0017,"nx":28,"ny":28,"refTime":"2024-08-10T15:00:00:Z","depth":0,"parameterNumber":2,"parameterNumberName":"U-component_of_WINDS"},"data":[0,0,0,0,0,0,0,0,0,0,0,0,0,0,0,0,0,0,0,0,0,0,0,0,0,0,0,0,0,0,0,0,0,0,0,0,0,0,0,0,0,0,0,0,0,0,0,0,0,0,0,0,0,0,0,0,0,0,1.2448,1.2448,0,1.2525,1.2526,1.2526,1.2583,1.2583,1.2584,1.2584,1.2665,1.2667,1.2669,0,0,0,0,0,0,0,0,0,0,0,0,0,1.2352,1.2353,1.2448,1.2449,1.245,1.2524,1.2526,1.2527,1.2583,1.2583,1.2584,1.2584,1.2665,1.2667,1.2669,0,0,0,0,0,0,0,0,0,0,0,0,0,1.2408,1.2354,1.2447,1.2486,1.2491,1.2524,1.2526,1.2527,1.2582,1.2583,1.2584,1.2585,1.2664,1.2667,1.2669,1.2671,0,0,1.2677,1.2678,0,0,0,0,0,0,0,0,1.2404,1.2411,1.248,1.2484,1.2489,1.2545,1.2522,1.2575,1.2582,1.2548,1.2584,1.2585,1.2625,1.2631,1.2644,1.2674,1.2678,1.2677,1.2679,1.268,1.2681,0,0,0,0,0,0,0,1.24,1.2408,1.2478,1.2481,1.2486,1.2501,1.251,1.2532,1.2581,1.2551,1.2555,1.2563,1.2627,1.2641,1.2646,1.2679,1.2677,1.2679,1.2681,1.2682,1.2716,1.2715,0,0,0,0,0,0,1.239,1.2404,1.2476,1.248,1.2447,1.2502,1.2512,1.2526,1.2581,1.259,1.2563,1.2566,1.2636,1.2643,1.2649,1.2654,1.268,1.2682,1.2684,1.2717,1.2716,1.2715,0,0,0,0,0,0,1.2388,1.2396,1.2473,1.2444,1.2455,1.2503,1.2518,1.2527,1.2541,1.259,1.2599,1.2567,1.2637,1.2645,1.2665,1.2658,1.2683,1.2686,1.2717,1.2716,1.2716,1.2665,0,0,0,0,0,0,1.2385,1.2395,1.2395,1.2443,1.2456,1.2486,1.2518,1.2528,1.2545,1.2549,1.2597,1.2605,1.2638,1.2661,1.2667,1.2662,1.2688,1.2718,1.2717,1.2716,1.2667,1.2662,1.2658,0,0,0,0,0,1.2381,1.2378,1.2395,1.2403,1.2457,1.2485,1.2493,1.253,1.2544,1.2545,1.2577,1.2604,1.2658,1.2662,1.267,1.2665,1.2719,1.2717,1.2716,1.2669,1.2663,1.2658,0,0,0,0,0,0,1.2328,1.2385,1.2404,1.2416,1.2445,1.2495,1.2497,1.2522,1.2548,1.2552,1.2598,1.2608,1.2622,1.2646,1.265,1.267,1.2692,1.2692,1.2654,1.2648,1.2644,1.2637,1.269,0,0,0,0,0,1.2318,1.2335,1.2385,1.2391,1.2404,1.2448,1.2462,1.2488,1.252,1.2533,1.2567,1.2598,1.2622,1.2637,1.2662,1.2672,1.2683,1.2673,1.2668,1.2664,1.2663,1.267,1.2666,1.2711,1.2711,1.2711,0,0,1.2296,1.233,1.2338,1.2381,1.2406,1.2424,1.2458,1.2475,1.2489,1.2536,1.2556,1.2582,1.262,1.2634,1.2643,1.2655,1.2653,1.2662,1.2658,1.266,1.2668,1.2664,1.266,1.271,1.271,1.271,0,0,1.2267,1.2294,1.2301,1.2327,1.2365,1.2395,1.2397,1.2443,1.2461,1.2482,1.2518,1.2536,1.2576,1.2602,1.262,1.2601,1.2627,1.2608,1.2583,1.259,1.2586,1.2583,1.2576,1.2573,1.2608,1.2608,1.2607,0,1.2235,1.2263,1.2303,1.2318,1.2336,1.2379,1.2388,1.2411,1.2456,1.2467,1.248,1.2532,1.2561,1.2582,1.2577,1.2591,1.2595,1.2602,1.2583,1.2581,1.2579,1.2572,1.257,1.2605,1.2605,1.2606,1.2606,0,1.2222,1.2241,1.2243,1.2284,1.2303,1.2315,1.2357,1.2372,1.2397,1.2425,1.2446,1.2482,1.2515,1.2523,1.2547,1.2548,1.2554,1.2575,1.2597,1.2571,1.2566,1.2564,1.2601,1.2602,1.2603,1.2604,0,0,1.2159,1.2223,1.2223,1.2243,1.2289,1.2305,1.232,1.2351,1.2362,1.2393,1.2406,1.244,1.2459,1.248,1.2509,1.2514,1.2497,1.2535,1.2536,1.2525,1.2499,1.2482,1.2478,1.2515,1.2515,1.2514,1.2495,0,1.2135,1.2162,1.22,1.2215,1.2233,1.2275,1.2288,1.2318,1.2346,1.2366,1.2397,1.2419,1.2444,1.2457,1.2464,1.2497,1.2492,1.2499,1.2528,1.2528,1.2515,1.2476,1.2458,1.2438,1.2494,1.2493,1.2493,0,1.2111,1.2138,1.2155,1.22,1.2209,1.222,1.2252,1.2271,1.2307,1.2326,1.235,1.2381,1.2399,1.242,1.2446,1.2451,1.2465,1.2483,1.2483,1.2486,1.2508,1.2476,1.2433,1.2429,1.2491,1.2491,1.2491,0,1.2062,1.2103,1.2118,1.2134,1.2188,1.2194,1.2217,1.2254,1.2271,1.23,1.2311,1.2342,1.2359,1.2382,1.2421,1.2433,1.2443,1.2467,1.246,1.2459,1.2459,1.2458,1.2415,1.247,1.247,1.247,1.247,0,1.203,1.2039,1.2097,1.2106,1.2117,1.2161,1.2171,1.2198,1.223,1.2246,1.2285,1.23,1.235,1.2371,1.2402,1.2418,1.2426,1.2443,1.245,1.2438,1.2436,1.2447,1.2449,1.2469,1.247,1.247,1.247,0,1.1976,1.2016,1.2035,1.2085,1.2098,1.2104,1.2147,1.2158,1.2188,1.2208,1.2215,1.2262,1.2289,1.233,1.2369,1.239,1.2401,1.2415,1.2388,1.2392,1.2382,1.2382,1.2344,1.2341,1.2398,1.2398,1.2397,0,1.1953,1.196,1.2011,1.2024,1.2046,1.2066,1.2084,1.2128,1.2145,1.2187,1.2193,1.2222,1.2248,1.2288,1.2326,1.2356,1.237,1.2355,1.2375,1.2362,1.2369,1.2367,1.2368,1.235,1.2349,1.2348,1.2348,0,1.1907,1.1926,1.195,1.198,1.2,1.2026,1.2055,1.2064,1.2114,1.2131,1.2158,1.2178,1.2217,1.2246,1.2281,1.2306,1.2335,1.2341,1.2341,1.2328,1.2311,1.2319,1.2374,1.2341,1.2342,1.2343,1.2343,1.2343,1.1867,1.1875,1.1913,1.1938,1.1964,1.199,1.2002,1.2035,1.2058,1.2093,1.2118,1.2143,1.218,1.2231,1.2254,1.2275,1.2288,1.2287,1.2287,1.2286,1.2281,1.2309,1.2282,1.2282,1.2282,1.2283,1.2283,0,1.1822,1.1848,1.1871,1.1909,1.1929,1.1956,1.1989,1.2003,1.2025,1.2057,1.2081,1.2113,1.2141,1.2182,1.2213,1.2222,1.2236,1.2229,1.2228,1.2233,1.2268,1.2265,1.2217,1.2217,1.2217,1.2217,1.2217,1.2217,1.1801,1.1816,1.1841,1.187,1.1897,1.1922,1.1938,1.1962,1.1988,1.2021,1.2045,1.2071,1.2107,1.2142,1.2169,1.2181,1.219,1.2178,1.2193,1.2225,1.2231,1.2236,1.2233,1.218,1.218,1.2156,1.2156,1.2156]},{"header":{"parameterUnit":"m.s-1","parameterCategory":1,"la1":30.2991,"la2":30.254,"lo1":-89.0895,"lo2":-89.0444,"dy":0.0017,"dx":0.0017,"nx":28,"ny":28,"refTime":"2024-08-10T15:00:00:Z","depth":0,"parameterNumber":3,"parameterNumberName":"V-component_of_WINDS"},"data":[0,0,0,0,0,0,0,0,0,0,0,0,0,0,0,0,0,0,0,0,0,0,0,0,0,0,0,0,0,0,0,0,0,0,0,0,0,0,0,0,0,0,0,0,0,0,0,0,0,0,0,0,0,0,0,0,0,0,2.7107,2.7108,0,2.7179,2.718,2.7181,2.7182,2.7181,2.718,2.7179,2.725,2.7253,2.7256,0,0,0,0,0,0,0,0,0,0,0,0,0,2.6964,2.6967,2.7107,2.7108,2.7109,2.7179,2.718,2.7181,2.7182,2.7181,2.718,2.7179,2.7249,2.7253,2.7256,0,0,0,0,0,0,0,0,0,0,0,0,0,2.703,2.6967,2.7107,2.7118,2.7119,2.7179,2.718,2.7181,2.7182,2.7181,2.7179,2.7178,2.7248,2.7252,2.7256,2.7309,0,0,2.7269,2.7271,0,0,0,0,0,0,0,0,2.7026,2.7035,2.7115,2.7117,2.7119,2.717,2.7156,2.7224,2.7182,2.7158,2.7179,2.7177,2.7224,2.723,2.7247,2.7312,2.7315,2.7269,2.7272,2.7273,2.7275,0,0,0,0,0,0,0,2.7022,2.7032,2.7135,2.7116,2.7119,2.7117,2.7125,2.7169,2.7198,2.716,2.716,2.7169,2.7225,2.7243,2.7249,2.7316,2.7269,2.7273,2.7275,2.7277,2.7422,2.7423,0,0,0,0,0,0,2.7015,2.7028,2.7133,2.7138,2.7068,2.7121,2.7129,2.7155,2.7198,2.7203,2.717,2.7169,2.7237,2.7244,2.7251,2.7311,2.7273,2.7277,2.728,2.742,2.7422,2.7424,0,0,0,0,0,0,2.7012,2.7025,2.713,2.7083,2.7096,2.7125,2.7153,2.7157,2.7175,2.7205,2.721,2.7183,2.7236,2.7245,2.7293,2.7314,2.7279,2.7283,2.7419,2.7421,2.7423,2.7435,0,0,0,0,0,0,2.7008,2.7024,2.7046,2.7084,2.7099,2.7173,2.7155,2.716,2.7182,2.7181,2.7219,2.7223,2.7235,2.7287,2.7297,2.7319,2.7286,2.7417,2.742,2.7422,2.7432,2.7437,2.7441,0,0,0,0,0,2.7003,2.7047,2.7047,2.706,2.7127,2.7175,2.7183,2.7197,2.7184,2.7205,2.7223,2.7222,2.731,2.7292,2.7304,2.7327,2.7416,2.7419,2.7422,2.7431,2.7436,2.744,0,0,0,0,0,0,2.7012,2.7052,2.7053,2.7111,2.7139,2.7175,2.7202,2.7203,2.7235,2.7233,2.7247,2.7255,2.7302,2.732,2.7299,2.7377,2.7361,2.7367,2.7364,2.7369,2.7373,2.7367,2.7289,0,0,0,0,0,2.702,2.7056,2.709,2.7137,2.7151,2.7174,2.7195,2.7203,2.7232,2.7244,2.7267,2.7294,2.7328,2.735,2.7383,2.7435,2.7441,2.7456,2.746,2.7463,2.7467,2.7491,2.7497,2.7434,2.7434,2.7434,0,0,2.7038,2.7065,2.7087,2.7139,2.7162,2.7197,2.7184,2.7223,2.7248,2.725,2.7296,2.7313,2.7344,2.7393,2.7416,2.7409,2.7486,2.7467,2.747,2.7472,2.7495,2.7501,2.7506,2.7436,2.7436,2.7435,0,0,2.7088,2.7114,2.7153,2.7176,2.721,2.7224,2.7233,2.7268,2.7279,2.7326,2.7326,2.7356,2.7414,2.7435,2.7453,2.7506,2.7504,2.7516,2.7536,2.756,2.7565,2.7569,2.7584,2.759,2.752,2.752,2.752,0,2.7105,2.7159,2.7174,2.7211,2.7232,2.7235,2.7273,2.7294,2.7337,2.735,2.7342,2.7412,2.7434,2.7486,2.7498,2.7514,2.7522,2.7511,2.7563,2.7568,2.7572,2.7586,2.7592,2.7521,2.7521,2.7521,2.7521,0,2.7177,2.7214,2.7242,2.7282,2.7306,2.7344,2.7361,2.7384,2.7388,2.7402,2.7446,2.7472,2.7508,2.7521,2.7527,2.7572,2.7566,2.756,2.7545,2.7579,2.7592,2.7598,2.7523,2.7522,2.7522,2.7522,0,0,2.7235,2.728,2.729,2.7306,2.7342,2.737,2.7406,2.7441,2.7458,2.7487,2.7515,2.7562,2.7555,2.7576,2.7584,2.7604,2.7639,2.7596,2.7596,2.76,2.7685,2.7688,2.7694,2.7638,2.7639,2.764,2.7682,0,2.7286,2.7351,2.7363,2.7418,2.745,2.7451,2.7482,2.7505,2.7519,2.7546,2.756,2.7591,2.7583,2.7594,2.7615,2.763,2.7656,2.7628,2.7662,2.7663,2.7652,2.7702,2.7706,2.7744,2.7687,2.7688,2.7689,0,2.7355,2.7383,2.7442,2.7469,2.7483,2.7511,2.7541,2.7568,2.7593,2.7601,2.7622,2.7626,2.766,2.7643,2.7688,2.7669,2.7683,2.7692,2.7694,2.7696,2.7677,2.7703,2.7757,2.7761,2.7698,2.7698,2.7697,0,2.7386,2.744,2.7481,2.7495,2.7529,2.7548,2.7563,2.7587,2.7606,2.7632,2.7643,2.7673,2.7689,2.771,2.7721,2.7708,2.7763,2.7749,2.7768,2.7767,2.7779,2.7777,2.7833,2.7792,2.7792,2.7792,2.7791,0,2.744,2.7475,2.7495,2.7519,2.7557,2.7569,2.7605,2.7619,2.764,2.7665,2.7669,2.7692,2.7706,2.773,2.7739,2.7772,2.778,2.7785,2.7786,2.7784,2.7783,2.7792,2.7789,2.7793,2.7793,2.7792,2.7792,0,2.7482,2.7497,2.754,2.7568,2.7576,2.7602,2.7625,2.7647,2.7659,2.7691,2.7699,2.7717,2.7746,2.7759,2.7795,2.78,2.7837,2.7838,2.7828,2.7828,2.7846,2.7843,2.7908,2.7915,2.7871,2.7872,2.7872,0,2.7514,2.754,2.757,2.7587,2.7602,2.7631,2.7649,2.766,2.7679,2.7708,2.7726,2.7755,2.7778,2.7823,2.7839,2.7865,2.7865,2.7885,2.7869,2.7863,2.7861,2.7859,2.786,2.7888,2.7888,2.7889,2.7889,0,2.7568,2.7573,2.76,2.7628,2.765,2.7673,2.7695,2.7708,2.7723,2.7743,2.7772,2.779,2.7825,2.7853,2.7879,2.7892,2.7892,2.7894,2.7899,2.7896,2.7888,2.7889,2.7834,2.7892,2.7892,2.7892,2.7892,2.7891,2.7603,2.7625,2.7648,2.7677,2.7694,2.7714,2.7735,2.7749,2.7774,2.7804,2.7809,2.7839,2.7859,2.7895,2.7909,2.7931,2.7926,2.7934,2.7936,2.7937,2.7937,2.7886,2.7936,2.7936,2.7936,2.7936,2.7936,0,2.7654,2.7669,2.7695,2.7725,2.7746,2.7745,2.7768,2.7786,2.7812,2.7832,2.7855,2.7886,2.7912,2.7928,2.7953,2.7967,2.7967,2.7973,2.7971,2.7974,2.7942,2.7933,2.7972,2.7972,2.7972,2.7972,2.7972,2.7972,2.7683,2.7719,2.7726,2.7769,2.7783,2.7812,2.7825,2.7842,2.7858,2.7893,2.7914,2.7925,2.7942,2.7968,2.799,2.7994,2.8002,2.8008,2.8011,2.798,2.7976,2.7973,2.7965,2.801,2.801,2.8041,2.8041,2.8041]}]]